Year,Month,Day,Hour,Minute,Value (Times are PST for temperature in C)
2012,03,20,00,00,5.10
2012,03,20,00,01,5.10
2012,03,20,00,02,5.10
2012,03,20,00,03,5.10
2012,03,20,00,04,5.10
2012,03,20,00,05,5.10
2012,03,20,00,06,5.10
2012,03,20,00,07,5.10
2012,03,20,00,08,5.10
2012,03,20,00,09,5.10
2012,03,20,00,10,5.10
2012,03,20,00,11,5.10
2012,03,20,00,12,5.10
2012,03,20,00,13,5.10
2012,03,20,00,14,5.10
2012,03,20,00,15,5.10
2012,03,20,00,16,5.10
2012,03,20,00,17,5.10
2012,03,20,00,18,5.10
2012,03,20,00,19,5.10
2012,03,20,00,20,5.10
2012,03,20,00,21,5.10
2012,03,20,00,22,5.10
2012,03,20,00,23,5.10
2012,03,20,00,24,5.10
2012,03,20,00,25,5.10
2012,03,20,00,26,5.10
2012,03,20,00,27,5.10
2012,03,20,00,28,5.10
2012,03,20,00,29,5.10
2012,03,20,00,30,5.10
2012,03,20,00,31,5.10
2012,03,20,00,32,5.10
2012,03,20,00,33,5.10
2012,03,20,00,34,5.10
2012,03,20,00,35,5.10
2012,03,20,00,36,5.10
2012,03,20,00,37,5.10
2012,03,20,00,38,5.10
2012,03,20,00,39,5.10
2012,03,20,00,40,5.10
2012,03,20,00,41,5.10
2012,03,20,00,42,5.10
2012,03,20,00,43,5.00
2012,03,20,00,44,4.90
2012,03,20,00,45,4.90
2012,03,20,00,46,4.90
2012,03,20,00,47,4.90
2012,03,20,00,48,4.90
2012,03,20,00,49,4.90
2012,03,20,00,50,4.90
2012,03,20,00,51,4.90
2012,03,20,00,52,4.90
2012,03,20,00,53,4.90
2012,03,20,00,54,4.90
2012,03,20,00,55,4.90
2012,03,20,00,56,4.90
2012,03,20,00,57,4.80
2012,03,20,00,58,4.80
2012,03,20,00,59,4.80
2012,03,20,01,00,4.90
2012,03,20,01,01,4.90
2012,03,20,01,02,4.90
2012,03,20,01,03,4.90
2012,03,20,01,04,4.90
2012,03,20,01,05,4.90
2012,03,20,01,06,4.90
2012,03,20,01,07,4.90
2012,03,20,01,08,4.90
2012,03,20,01,09,4.90
2012,03,20,01,10,4.90
2012,03,20,01,11,4.90
2012,03,20,01,12,4.90
2012,03,20,01,13,4.80
2012,03,20,01,14,4.90
2012,03,20,01,15,4.90
2012,03,20,01,16,4.90
2012,03,20,01,17,4.90
2012,03,20,01,18,4.90
2012,03,20,01,19,4.90
2012,03,20,01,20,4.90
2012,03,20,01,21,4.90
2012,03,20,01,22,4.90
2012,03,20,01,23,4.90
2012,03,20,01,24,4.90
2012,03,20,01,25,4.90
2012,03,20,01,26,4.90
2012,03,20,01,27,4.90
2012,03,20,01,28,4.90
2012,03,20,01,29,4.90
2012,03,20,01,30,4.90
2012,03,20,01,31,4.90
2012,03,20,01,32,4.90
2012,03,20,01,33,4.90
2012,03,20,01,34,4.90
2012,03,20,01,35,4.90
2012,03,20,01,36,4.90
2012,03,20,01,37,5.00
2012,03,20,01,38,5.10
2012,03,20,01,39,5.10
2012,03,20,01,40,5.10
2012,03,20,01,41,5.10
2012,03,20,01,42,5.10
2012,03,20,01,43,5.10
2012,03,20,01,44,5.10
2012,03,20,01,45,5.10
2012,03,20,01,46,5.10
2012,03,20,01,47,5.10
2012,03,20,01,48,5.20
2012,03,20,01,49,5.20
2012,03,20,01,50,5.30
2012,03,20,01,51,5.30
2012,03,20,01,52,5.30
2012,03,20,01,53,5.30
2012,03,20,01,54,5.30
2012,03,20,01,55,5.30
2012,03,20,01,56,5.40
2012,03,20,01,57,5.40
2012,03,20,01,58,5.50
2012,03,20,01,59,5.50
2012,03,20,02,00,5.50
2012,03,20,02,01,5.50
2012,03,20,02,02,5.50
2012,03,20,02,03,5.50
2012,03,20,02,04,5.60
2012,03,20,02,05,5.60
2012,03,20,02,06,5.60
2012,03,20,02,07,5.60
2012,03,20,02,08,5.60
2012,03,20,02,09,5.70
2012,03,20,02,10,5.70
2012,03,20,02,11,5.70
2012,03,20,02,12,5.70
2012,03,20,02,13,5.70
2012,03,20,02,14,5.70
2012,03,20,02,15,5.70
2012,03,20,02,16,5.80
2012,03,20,02,17,5.80
2012,03,20,02,18,5.80
2012,03,20,02,19,5.80
2012,03,20,02,20,5.90
2012,03,20,02,21,5.90
2012,03,20,02,22,5.90
2012,03,20,02,23,5.80
2012,03,20,02,24,5.80
2012,03,20,02,25,5.80
2012,03,20,02,26,5.80
2012,03,20,02,27,5.70
2012,03,20,02,28,5.70
2012,03,20,02,29,5.70
2012,03,20,02,30,5.70
2012,03,20,02,31,5.70
2012,03,20,02,32,5.70
2012,03,20,02,33,5.70
2012,03,20,02,34,5.70
2012,03,20,02,35,5.70
2012,03,20,02,36,5.70
2012,03,20,02,37,5.70
2012,03,20,02,38,5.70
2012,03,20,02,39,5.70
2012,03,20,02,40,5.70
2012,03,20,02,41,5.70
2012,03,20,02,42,5.70
2012,03,20,02,43,5.70
2012,03,20,02,44,5.70
2012,03,20,02,45,5.70
2012,03,20,02,46,5.70
2012,03,20,02,47,5.70
2012,03,20,02,48,5.70
2012,03,20,02,49,5.70
2012,03,20,02,50,5.80
2012,03,20,02,51,5.80
2012,03,20,02,52,5.80
2012,03,20,02,53,5.80
2012,03,20,02,54,5.80
2012,03,20,02,55,5.70
2012,03,20,02,56,5.70
2012,03,20,02,57,5.70
2012,03,20,02,58,5.80
2012,03,20,02,59,5.80
2012,03,20,03,00,5.80
2012,03,20,03,01,5.80
2012,03,20,03,02,5.80
2012,03,20,03,03,5.80
2012,03,20,03,04,5.80
2012,03,20,03,05,5.80
2012,03,20,03,06,5.80
2012,03,20,03,07,5.80
2012,03,20,03,08,5.80
2012,03,20,03,09,5.80
2012,03,20,03,10,5.80
2012,03,20,03,11,5.80
2012,03,20,03,12,5.80
2012,03,20,03,13,5.70
2012,03,20,03,14,5.70
2012,03,20,03,15,5.70
2012,03,20,03,16,5.70
2012,03,20,03,17,5.70
2012,03,20,03,18,5.70
2012,03,20,03,19,5.70
2012,03,20,03,20,5.70
2012,03,20,03,21,5.70
2012,03,20,03,22,5.70
2012,03,20,03,23,5.80
2012,03,20,03,24,5.80
2012,03,20,03,25,5.80
2012,03,20,03,26,5.80
2012,03,20,03,27,5.80
2012,03,20,03,28,5.80
2012,03,20,03,29,5.80
2012,03,20,03,30,5.80
2012,03,20,03,31,5.80
2012,03,20,03,32,5.80
2012,03,20,03,33,5.80
2012,03,20,03,34,5.80
2012,03,20,03,35,5.80
2012,03,20,03,36,5.80
2012,03,20,03,37,5.80
2012,03,20,03,38,5.80
2012,03,20,03,39,5.90
2012,03,20,03,40,5.90
2012,03,20,03,41,5.90
2012,03,20,03,42,5.90
2012,03,20,03,43,5.90
2012,03,20,03,44,6.00
2012,03,20,03,45,6.00
2012,03,20,03,46,6.00
2012,03,20,03,47,6.10
2012,03,20,03,48,6.10
2012,03,20,03,49,6.20
2012,03,20,03,50,6.20
2012,03,20,03,51,6.20
2012,03,20,03,52,6.20
2012,03,20,03,53,6.20
2012,03,20,03,54,6.20
2012,03,20,03,55,6.20
2012,03,20,03,56,6.10
2012,03,20,03,57,6.10
2012,03,20,03,58,6.10
2012,03,20,03,59,6.00
2012,03,20,04,00,6.00
2012,03,20,04,01,6.00
2012,03,20,04,02,5.90
2012,03,20,04,03,5.90
2012,03,20,04,04,5.80
2012,03,20,04,05,5.80
2012,03,20,04,06,5.70
2012,03,20,04,07,5.70
2012,03,20,04,08,5.70
2012,03,20,04,09,5.70
2012,03,20,04,10,5.70
2012,03,20,04,11,5.60
2012,03,20,04,12,5.60
2012,03,20,04,13,5.60
2012,03,20,04,14,5.50
2012,03,20,04,15,5.60
2012,03,20,04,16,5.60
2012,03,20,04,17,5.60
2012,03,20,04,18,5.50
2012,03,20,04,19,5.50
2012,03,20,04,20,5.50
2012,03,20,04,21,5.50
2012,03,20,04,22,5.50
2012,03,20,04,23,5.50
2012,03,20,04,24,5.50
2012,03,20,04,25,5.50
2012,03,20,04,26,5.50
2012,03,20,04,27,5.50
2012,03,20,04,28,5.50
2012,03,20,04,29,5.50
2012,03,20,04,30,5.50
2012,03,20,04,31,5.40
2012,03,20,04,32,5.40
2012,03,20,04,33,5.40
2012,03,20,04,34,5.40
2012,03,20,04,35,5.40
2012,03,20,04,36,5.50
2012,03,20,04,37,5.50
2012,03,20,04,38,5.50
2012,03,20,04,39,5.50
2012,03,20,04,40,5.50
2012,03,20,04,41,5.50
2012,03,20,04,42,5.50
2012,03,20,04,43,5.50
2012,03,20,04,44,5.60
2012,03,20,04,45,5.60
2012,03,20,04,46,5.60
2012,03,20,04,47,5.60
2012,03,20,04,48,5.60
2012,03,20,04,49,5.60
2012,03,20,04,50,5.60
2012,03,20,04,51,5.60
2012,03,20,04,52,5.60
2012,03,20,04,53,5.60
2012,03,20,04,54,5.60
2012,03,20,04,55,5.60
2012,03,20,04,56,5.60
2012,03,20,04,57,5.60
2012,03,20,04,58,5.60
2012,03,20,04,59,5.60
2012,03,20,05,00,5.60
2012,03,20,05,01,5.60
2012,03,20,05,02,5.60
2012,03,20,05,03,5.60
2012,03,20,05,04,5.60
2012,03,20,05,05,5.60
2012,03,20,05,06,5.60
2012,03,20,05,07,5.60
2012,03,20,05,08,5.60
2012,03,20,05,09,5.60
2012,03,20,05,10,5.60
2012,03,20,05,11,5.60
2012,03,20,05,12,5.60
2012,03,20,05,13,5.60
2012,03,20,05,14,5.60
2012,03,20,05,15,5.60
2012,03,20,05,16,5.60
2012,03,20,05,17,5.60
2012,03,20,05,18,5.60
2012,03,20,05,19,5.60
2012,03,20,05,20,5.60
2012,03,20,05,21,5.60
2012,03,20,05,22,5.70
2012,03,20,05,23,5.70
2012,03,20,05,24,5.70
2012,03,20,05,25,5.70
2012,03,20,05,26,5.70
2012,03,20,05,27,5.70
2012,03,20,05,28,5.70
2012,03,20,05,29,5.70
2012,03,20,05,30,5.70
2012,03,20,05,31,5.60
2012,03,20,05,32,5.60
2012,03,20,05,33,5.60
2012,03,20,05,34,5.60
2012,03,20,05,35,5.60
2012,03,20,05,36,5.60
2012,03,20,05,37,5.60
2012,03,20,05,38,5.50
2012,03,20,05,39,5.50
2012,03,20,05,40,5.50
2012,03,20,05,41,5.50
2012,03,20,05,42,5.50
2012,03,20,05,43,5.50
2012,03,20,05,44,5.50
2012,03,20,05,45,5.50
2012,03,20,05,46,5.50
2012,03,20,05,47,5.50
2012,03,20,05,48,5.50
2012,03,20,05,49,5.50
2012,03,20,05,50,5.50
2012,03,20,05,51,5.50
2012,03,20,05,52,5.50
2012,03,20,05,53,5.50
2012,03,20,05,54,5.50
2012,03,20,05,55,5.50
2012,03,20,05,56,5.50
2012,03,20,05,57,5.50
2012,03,20,05,58,5.60
2012,03,20,05,59,5.60
2012,03,20,06,00,5.60
2012,03,20,06,01,5.60
2012,03,20,06,02,5.60
2012,03,20,06,03,5.50
2012,03,20,06,04,5.50
2012,03,20,06,05,5.50
2012,03,20,06,06,5.50
2012,03,20,06,07,5.50
2012,03,20,06,08,5.40
2012,03,20,06,09,5.40
2012,03,20,06,10,5.30
2012,03,20,06,11,5.30
2012,03,20,06,12,5.30
2012,03,20,06,13,5.30
2012,03,20,06,14,5.30
2012,03,20,06,15,5.20
2012,03,20,06,16,5.20
2012,03,20,06,17,5.10
2012,03,20,06,18,5.10
2012,03,20,06,19,5.10
2012,03,20,06,20,5.10
2012,03,20,06,21,5.10
2012,03,20,06,22,5.00
2012,03,20,06,23,4.90
2012,03,20,06,24,4.90
2012,03,20,06,25,4.90
2012,03,20,06,26,4.90
2012,03,20,06,27,4.90
2012,03,20,06,28,4.90
2012,03,20,06,29,4.90
2012,03,20,06,30,4.90
2012,03,20,06,31,4.90
2012,03,20,06,32,4.80
2012,03,20,06,33,4.80
2012,03,20,06,34,4.80
2012,03,20,06,35,4.80
2012,03,20,06,36,4.80
2012,03,20,06,37,4.80
2012,03,20,06,38,4.80
2012,03,20,06,39,4.80
2012,03,20,06,40,4.80
2012,03,20,06,41,4.80
2012,03,20,06,42,4.80
2012,03,20,06,43,4.80
2012,03,20,06,44,4.70
2012,03,20,06,45,4.70
2012,03,20,06,46,4.70
2012,03,20,06,47,4.70
2012,03,20,06,48,4.70
2012,03,20,06,49,4.80
2012,03,20,06,50,4.80
2012,03,20,06,51,4.80
2012,03,20,06,52,4.80
2012,03,20,06,53,4.80
2012,03,20,06,54,4.80
2012,03,20,06,55,4.80
2012,03,20,06,56,4.80
2012,03,20,06,57,4.80
2012,03,20,06,58,4.80
2012,03,20,06,59,4.80
2012,03,20,07,00,4.80
2012,03,20,07,01,4.80
2012,03,20,07,02,4.70
2012,03,20,07,03,4.70
2012,03,20,07,04,4.70
2012,03,20,07,05,4.70
2012,03,20,07,06,4.70
2012,03,20,07,07,4.70
2012,03,20,07,08,4.70
2012,03,20,07,09,4.70
2012,03,20,07,10,4.70
2012,03,20,07,11,4.70
2012,03,20,07,12,4.70
2012,03,20,07,13,4.70
2012,03,20,07,14,4.70
2012,03,20,07,15,4.70
2012,03,20,07,16,4.70
2012,03,20,07,17,4.60
2012,03,20,07,18,4.50
2012,03,20,07,19,4.40
2012,03,20,07,20,4.20
2012,03,20,07,21,4.20
2012,03,20,07,22,4.20
2012,03,20,07,23,4.20
2012,03,20,07,24,4.10
2012,03,20,07,25,4.00
2012,03,20,07,26,3.90
2012,03,20,07,27,3.80
2012,03,20,07,28,3.80
2012,03,20,07,29,3.70
2012,03,20,07,30,3.60
2012,03,20,07,31,3.60
2012,03,20,07,32,3.50
2012,03,20,07,33,3.50
2012,03,20,07,34,3.50
2012,03,20,07,35,3.50
2012,03,20,07,36,3.50
2012,03,20,07,37,3.50
2012,03,20,07,38,3.50
2012,03,20,07,39,3.50
2012,03,20,07,40,3.50
2012,03,20,07,41,3.50
2012,03,20,07,42,3.50
2012,03,20,07,43,3.50
2012,03,20,07,44,3.50
2012,03,20,07,45,3.50
2012,03,20,07,46,3.60
2012,03,20,07,47,3.60
2012,03,20,07,48,3.60
2012,03,20,07,49,3.60
2012,03,20,07,50,3.60
2012,03,20,07,51,3.70
2012,03,20,07,52,3.70
2012,03,20,07,53,3.70
2012,03,20,07,54,3.80
2012,03,20,07,55,3.80
2012,03,20,07,56,3.80
2012,03,20,07,57,3.80
2012,03,20,07,58,3.80
2012,03,20,07,59,3.80
2012,03,20,08,00,3.90
2012,03,20,08,01,3.90
2012,03,20,08,02,3.90
2012,03,20,08,03,4.00
2012,03,20,08,04,4.00
2012,03,20,08,05,4.10
2012,03,20,08,06,4.10
2012,03,20,08,07,4.10
2012,03,20,08,08,4.20
2012,03,20,08,09,4.20
2012,03,20,08,10,4.20
2012,03,20,08,11,4.20
2012,03,20,08,12,4.20
2012,03,20,08,13,4.20
2012,03,20,08,14,4.20
2012,03,20,08,15,4.10
2012,03,20,08,16,4.00
2012,03,20,08,17,4.00
2012,03,20,08,18,4.00
2012,03,20,08,19,4.00
2012,03,20,08,20,3.90
2012,03,20,08,21,3.90
2012,03,20,08,22,3.90
2012,03,20,08,23,3.90
2012,03,20,08,24,3.90
2012,03,20,08,25,3.80
2012,03,20,08,26,3.80
2012,03,20,08,27,3.80
2012,03,20,08,28,3.80
2012,03,20,08,29,3.80
2012,03,20,08,30,3.80
2012,03,20,08,31,3.80
2012,03,20,08,32,3.80
2012,03,20,08,33,3.80
2012,03,20,08,34,3.80
2012,03,20,08,35,3.90
2012,03,20,08,36,3.90
2012,03,20,08,37,4.00
2012,03,20,08,38,4.00
2012,03,20,08,39,4.00
2012,03,20,08,40,4.00
2012,03,20,08,41,4.00
2012,03,20,08,42,4.10
2012,03,20,08,43,4.10
2012,03,20,08,44,4.10
2012,03,20,08,45,4.20
2012,03,20,08,46,4.20
2012,03,20,08,47,4.20
2012,03,20,08,48,4.20
2012,03,20,08,49,4.20
2012,03,20,08,50,4.30
2012,03,20,08,51,4.30
2012,03,20,08,52,4.30
2012,03,20,08,53,4.30
2012,03,20,08,54,4.40
2012,03,20,08,55,4.40
2012,03,20,08,56,4.40
2012,03,20,08,57,4.40
2012,03,20,08,58,4.40
2012,03,20,08,59,4.40
2012,03,20,09,00,4.40
2012,03,20,09,01,4.40
2012,03,20,09,02,4.40
2012,03,20,09,03,4.40
2012,03,20,09,04,4.40
2012,03,20,09,05,4.30
2012,03,20,09,06,4.30
2012,03,20,09,07,4.30
2012,03,20,09,08,4.30
2012,03,20,09,09,4.30
2012,03,20,09,10,4.30
2012,03,20,09,11,4.40
2012,03,20,09,12,4.40
2012,03,20,09,13,4.40
2012,03,20,09,14,4.50
2012,03,20,09,15,4.50
2012,03,20,09,16,4.50
2012,03,20,09,17,4.60
2012,03,20,09,18,4.60
2012,03,20,09,19,4.60
2012,03,20,09,20,4.60
2012,03,20,09,21,4.70
2012,03,20,09,22,4.70
2012,03,20,09,23,4.80
2012,03,20,09,24,4.80
2012,03,20,09,25,4.90
2012,03,20,09,26,4.90
2012,03,20,09,27,4.90
2012,03,20,09,28,4.90
2012,03,20,09,29,4.90
2012,03,20,09,30,5.10
2012,03,20,09,31,5.10
2012,03,20,09,32,5.10
2012,03,20,09,33,5.10
2012,03,20,09,34,5.10
2012,03,20,09,35,5.10
2012,03,20,09,36,5.20
2012,03,20,09,37,5.20
2012,03,20,09,38,5.20
2012,03,20,09,39,5.30
2012,03,20,09,40,5.30
2012,03,20,09,41,5.30
2012,03,20,09,42,5.30
2012,03,20,09,43,5.40
2012,03,20,09,44,5.50
2012,03,20,09,45,5.50
2012,03,20,09,46,5.50
2012,03,20,09,47,5.50
2012,03,20,09,48,5.50
2012,03,20,09,49,5.50
2012,03,20,09,50,5.50
2012,03,20,09,51,5.60
2012,03,20,09,52,5.70
2012,03,20,09,53,5.70
2012,03,20,09,54,5.70
2012,03,20,09,55,5.80
2012,03,20,09,56,5.80
2012,03,20,09,57,5.90
2012,03,20,09,58,5.90
2012,03,20,09,59,5.90
2012,03,20,10,00,5.90
2012,03,20,10,01,5.90
2012,03,20,10,02,5.80
2012,03,20,10,03,5.70
2012,03,20,10,04,5.70
2012,03,20,10,05,5.60
2012,03,20,10,06,5.40
2012,03,20,10,07,5.20
2012,03,20,10,08,5.10
2012,03,20,10,09,4.90
2012,03,20,10,10,4.80
2012,03,20,10,11,4.70
2012,03,20,10,12,4.60
2012,03,20,10,13,4.50
2012,03,20,10,14,4.40
2012,03,20,10,15,4.40
2012,03,20,10,16,4.40
2012,03,20,10,17,4.40
2012,03,20,10,18,4.40
2012,03,20,10,19,4.40
2012,03,20,10,20,4.40
2012,03,20,10,21,4.40
2012,03,20,10,22,4.40
2012,03,20,10,23,4.50
2012,03,20,10,24,4.50
2012,03,20,10,25,4.60
2012,03,20,10,26,4.60
2012,03,20,10,27,4.60
2012,03,20,10,28,4.70
2012,03,20,10,29,4.70
2012,03,20,10,30,4.70
2012,03,20,10,31,4.70
2012,03,20,10,32,4.80
2012,03,20,10,33,4.80
2012,03,20,10,34,4.80
2012,03,20,10,35,4.90
2012,03,20,10,36,5.00
2012,03,20,10,37,5.10
2012,03,20,10,38,5.10
2012,03,20,10,39,5.10
2012,03,20,10,40,5.10
2012,03,20,10,41,5.10
2012,03,20,10,42,5.20
2012,03,20,10,43,5.20
2012,03,20,10,44,5.30
2012,03,20,10,45,5.30
2012,03,20,10,46,5.40
2012,03,20,10,47,5.50
2012,03,20,10,48,5.60
2012,03,20,10,49,5.60
2012,03,20,10,50,5.70
2012,03,20,10,51,5.70
2012,03,20,10,52,5.70
2012,03,20,10,53,5.70
2012,03,20,10,54,5.70
2012,03,20,10,55,5.70
2012,03,20,10,56,5.70
2012,03,20,10,57,5.80
2012,03,20,10,58,5.80
2012,03,20,10,59,5.80
2012,03,20,11,00,5.90
2012,03,20,11,01,5.90
2012,03,20,11,02,6.00
2012,03,20,11,03,6.00
2012,03,20,11,04,6.00
2012,03,20,11,05,6.10
2012,03,20,11,06,6.20
2012,03,20,11,07,6.20
2012,03,20,11,08,6.30
2012,03,20,11,09,6.20
2012,03,20,11,10,6.30
2012,03,20,11,11,6.30
2012,03,20,11,12,6.30
2012,03,20,11,13,6.40
2012,03,20,11,14,6.50
2012,03,20,11,15,6.60
2012,03,20,11,16,6.60
2012,03,20,11,17,6.70
2012,03,20,11,18,6.70
2012,03,20,11,19,6.70
2012,03,20,11,20,6.70
2012,03,20,11,21,6.70
2012,03,20,11,22,6.80
2012,03,20,11,23,6.80
2012,03,20,11,24,6.80
2012,03,20,11,25,6.80
2012,03,20,11,26,6.80
2012,03,20,11,27,6.80
2012,03,20,11,28,6.80
2012,03,20,11,29,6.90
2012,03,20,11,30,6.90
2012,03,20,11,31,6.90
2012,03,20,11,32,6.90
2012,03,20,11,33,6.90
2012,03,20,11,34,6.90
2012,03,20,11,35,6.90
2012,03,20,11,36,6.90
2012,03,20,11,37,6.90
2012,03,20,11,38,6.90
2012,03,20,11,39,7.00
2012,03,20,11,40,7.00
2012,03,20,11,41,7.00
2012,03,20,11,42,7.00
2012,03,20,11,43,7.00
2012,03,20,11,44,7.00
2012,03,20,11,45,7.00
2012,03,20,11,46,7.10
2012,03,20,11,47,7.10
2012,03,20,11,48,7.10
2012,03,20,11,49,7.20
2012,03,20,11,50,7.20
2012,03,20,11,51,7.20
2012,03,20,11,52,7.10
2012,03,20,11,53,7.10
2012,03,20,11,54,7.10
2012,03,20,11,55,7.20
2012,03,20,11,56,7.20
2012,03,20,11,57,7.20
2012,03,20,11,58,7.20
2012,03,20,11,59,7.30
2012,03,20,12,00,7.30
2012,03,20,12,01,7.30
2012,03,20,12,02,7.30
2012,03,20,12,03,7.30
2012,03,20,12,04,7.30
2012,03,20,12,05,7.30
2012,03,20,12,06,7.30
2012,03,20,12,07,7.40
2012,03,20,12,08,7.50
2012,03,20,12,09,7.50
2012,03,20,12,10,7.50
2012,03,20,12,11,7.40
2012,03,20,12,12,7.40
2012,03,20,12,13,7.20
2012,03,20,12,14,7.20
2012,03,20,12,15,7.10
2012,03,20,12,16,7.00
2012,03,20,12,17,6.90
2012,03,20,12,18,6.80
2012,03,20,12,19,6.70
2012,03,20,12,20,6.70
2012,03,20,12,21,6.70
2012,03,20,12,22,6.80
2012,03,20,12,23,6.70
2012,03,20,12,24,6.70
2012,03,20,12,25,6.70
2012,03,20,12,26,6.60
2012,03,20,12,27,6.60
2012,03,20,12,28,6.60
2012,03,20,12,29,6.60
2012,03,20,12,30,6.60
2012,03,20,12,31,6.50
2012,03,20,12,32,6.40
2012,03,20,12,33,6.40
2012,03,20,12,34,6.40
2012,03,20,12,35,6.30
2012,03,20,12,36,6.20
2012,03,20,12,37,6.10
2012,03,20,12,38,6.00
2012,03,20,12,39,6.00
2012,03,20,12,40,5.90
2012,03,20,12,41,5.80
2012,03,20,12,42,5.70
2012,03,20,12,43,5.50
2012,03,20,12,44,5.40
2012,03,20,12,45,5.30
2012,03,20,12,46,5.30
2012,03,20,12,47,5.20
2012,03,20,12,48,5.10
2012,03,20,12,49,5.00
2012,03,20,12,50,4.90
2012,03,20,12,51,4.90
2012,03,20,12,52,4.90
2012,03,20,12,53,4.80
2012,03,20,12,54,4.80
2012,03,20,12,55,4.70
2012,03,20,12,56,4.60
2012,03,20,12,57,4.60
2012,03,20,12,58,4.50
2012,03,20,12,59,4.40
2012,03,20,13,00,4.30
2012,03,20,13,01,4.30
2012,03,20,13,02,4.30
2012,03,20,13,03,4.40
2012,03,20,13,04,4.50
2012,03,20,13,05,4.50
2012,03,20,13,06,4.50
2012,03,20,13,07,4.60
2012,03,20,13,08,4.70
2012,03,20,13,09,4.70
2012,03,20,13,10,4.80
2012,03,20,13,11,4.90
2012,03,20,13,12,4.90
2012,03,20,13,13,5.10
2012,03,20,13,14,5.10
2012,03,20,13,15,5.10
2012,03,20,13,16,5.20
2012,03,20,13,17,5.20
2012,03,20,13,18,5.20
2012,03,20,13,19,5.20
2012,03,20,13,20,5.10
2012,03,20,13,21,5.20
2012,03,20,13,22,5.30
2012,03,20,13,23,5.40
2012,03,20,13,24,5.30
2012,03,20,13,25,5.30
2012,03,20,13,26,5.50
2012,03,20,13,27,5.50
2012,03,20,13,28,5.60
2012,03,20,13,29,5.70
2012,03,20,13,30,5.70
2012,03,20,13,31,5.80
2012,03,20,13,32,5.90
2012,03,20,13,33,5.90
2012,03,20,13,34,6.00
2012,03,20,13,35,6.00
2012,03,20,13,36,6.10
2012,03,20,13,37,6.10
2012,03,20,13,38,6.00
2012,03,20,13,39,5.90
2012,03,20,13,40,5.80
2012,03,20,13,41,5.80
2012,03,20,13,42,5.70
2012,03,20,13,43,5.40
2012,03,20,13,44,5.00
2012,03,20,13,45,4.70
2012,03,20,13,46,4.50
2012,03,20,13,47,4.30
2012,03,20,13,48,4.20
2012,03,20,13,49,4.20
2012,03,20,13,50,4.20
2012,03,20,13,51,4.20
2012,03,20,13,52,4.10
2012,03,20,13,53,4.10
2012,03,20,13,54,4.00
2012,03,20,13,55,4.00
2012,03,20,13,56,4.00
2012,03,20,13,57,3.90
2012,03,20,13,58,3.90
2012,03,20,13,59,3.80
2012,03,20,14,00,3.80
2012,03,20,14,01,3.70
2012,03,20,14,02,3.60
2012,03,20,14,03,3.50
2012,03,20,14,04,3.50
2012,03,20,14,05,3.40
2012,03,20,14,06,3.30
2012,03,20,14,07,3.30
2012,03,20,14,08,3.30
2012,03,20,14,09,3.20
2012,03,20,14,10,3.20
2012,03,20,14,11,3.20
2012,03,20,14,12,3.20
2012,03,20,14,13,3.20
2012,03,20,14,14,3.20
2012,03,20,14,15,3.30
2012,03,20,14,16,3.30
2012,03,20,14,17,3.30
2012,03,20,14,18,3.30
2012,03,20,14,19,3.30
2012,03,20,14,20,3.30
2012,03,20,14,21,3.30
2012,03,20,14,22,3.30
2012,03,20,14,23,3.30
2012,03,20,14,24,3.30
2012,03,20,14,25,3.30
2012,03,20,14,26,3.40
2012,03,20,14,27,3.40
2012,03,20,14,28,3.40
2012,03,20,14,29,3.50
2012,03,20,14,30,3.50
2012,03,20,14,31,3.60
2012,03,20,14,32,3.70
2012,03,20,14,33,3.80
2012,03,20,14,34,3.80
2012,03,20,14,35,3.90
2012,03,20,14,36,3.90
2012,03,20,14,37,3.90
2012,03,20,14,38,3.90
2012,03,20,14,39,4.00
2012,03,20,14,40,4.00
2012,03,20,14,41,4.00
2012,03,20,14,42,4.10
2012,03,20,14,43,4.10
2012,03,20,14,44,4.10
2012,03,20,14,45,4.20
2012,03,20,14,46,4.20
2012,03,20,14,47,4.20
2012,03,20,14,48,4.20
2012,03,20,14,49,4.30
2012,03,20,14,50,4.30
2012,03,20,14,51,4.40
2012,03,20,14,52,4.40
2012,03,20,14,53,4.50
2012,03,20,14,54,4.50
2012,03,20,14,55,4.50
2012,03,20,14,56,4.60
2012,03,20,14,57,4.60
2012,03,20,14,58,4.60
2012,03,20,14,59,4.60
2012,03,20,15,00,4.70
2012,03,20,15,01,4.70
2012,03,20,15,02,4.70
2012,03,20,15,03,4.70
2012,03,20,15,04,4.70
2012,03,20,15,05,4.80
2012,03,20,15,06,4.90
2012,03,20,15,07,4.90
2012,03,20,15,08,4.90
2012,03,20,15,09,4.90
2012,03,20,15,10,5.00
2012,03,20,15,11,5.10
2012,03,20,15,12,5.10
2012,03,20,15,13,5.10
2012,03,20,15,14,5.10
2012,03,20,15,15,5.10
2012,03,20,15,16,5.10
2012,03,20,15,17,5.20
2012,03,20,15,18,5.20
2012,03,20,15,19,5.20
2012,03,20,15,20,5.20
2012,03,20,15,21,5.30
2012,03,20,15,22,5.20
2012,03,20,15,23,5.20
2012,03,20,15,24,5.30
2012,03,20,15,25,5.30
2012,03,20,15,26,5.30
2012,03,20,15,27,5.30
2012,03,20,15,28,5.30
2012,03,20,15,29,5.30
2012,03,20,15,30,5.30
2012,03,20,15,31,5.40
2012,03,20,15,32,5.50
2012,03,20,15,33,5.50
2012,03,20,15,34,5.50
2012,03,20,15,35,5.60
2012,03,20,15,36,5.70
2012,03,20,15,37,5.70
2012,03,20,15,38,5.60
2012,03,20,15,39,5.60
2012,03,20,15,40,5.70
2012,03,20,15,41,5.70
2012,03,20,15,42,5.70
2012,03,20,15,43,5.70
2012,03,20,15,44,5.70
2012,03,20,15,45,5.70
2012,03,20,15,46,5.70
2012,03,20,15,47,5.70
2012,03,20,15,48,5.70
2012,03,20,15,49,5.70
2012,03,20,15,50,5.80
2012,03,20,15,51,5.90
2012,03,20,15,52,5.90
2012,03,20,15,53,5.90
2012,03,20,15,54,5.90
2012,03,20,15,55,6.00
2012,03,20,15,56,6.10
2012,03,20,15,57,6.20
2012,03,20,15,58,6.20
2012,03,20,15,59,6.10
2012,03,20,16,00,6.10
2012,03,20,16,01,6.20
2012,03,20,16,02,6.20
2012,03,20,16,03,6.20
2012,03,20,16,04,6.30
2012,03,20,16,05,6.20
2012,03,20,16,06,6.20
2012,03,20,16,07,6.30
2012,03,20,16,08,6.30
2012,03,20,16,09,6.40
2012,03,20,16,10,6.40
2012,03,20,16,11,6.30
2012,03,20,16,12,6.30
2012,03,20,16,13,6.30
2012,03,20,16,14,6.30
2012,03,20,16,15,6.30
2012,03,20,16,16,6.30
2012,03,20,16,17,6.30
2012,03,20,16,18,6.30
2012,03,20,16,19,6.20
2012,03,20,16,20,6.20
2012,03,20,16,21,6.20
2012,03,20,16,22,6.00
2012,03,20,16,23,5.80
2012,03,20,16,24,5.60
2012,03,20,16,25,5.50
2012,03,20,16,26,5.30
2012,03,20,16,27,5.10
2012,03,20,16,28,5.00
2012,03,20,16,29,4.90
2012,03,20,16,30,4.80
2012,03,20,16,31,4.70
2012,03,20,16,32,4.60
2012,03,20,16,33,4.50
2012,03,20,16,34,4.40
2012,03,20,16,35,4.40
2012,03,20,16,36,4.30
2012,03,20,16,37,4.30
2012,03,20,16,38,4.30
2012,03,20,16,39,4.30
2012,03,20,16,40,4.20
2012,03,20,16,41,4.20
2012,03,20,16,42,4.20
2012,03,20,16,43,4.20
2012,03,20,16,44,4.20
2012,03,20,16,45,4.20
2012,03,20,16,46,4.10
2012,03,20,16,47,4.10
2012,03,20,16,48,4.00
2012,03,20,16,49,4.00
2012,03,20,16,50,3.90
2012,03,20,16,51,3.80
2012,03,20,16,52,3.80
2012,03,20,16,53,3.80
2012,03,20,16,54,3.90
2012,03,20,16,55,3.90
2012,03,20,16,56,4.00
2012,03,20,16,57,4.00
2012,03,20,16,58,4.00
2012,03,20,16,59,4.10
2012,03,20,17,00,4.10
2012,03,20,17,01,4.20
2012,03,20,17,02,4.20
2012,03,20,17,03,4.20
2012,03,20,17,04,4.20
2012,03,20,17,05,4.20
2012,03,20,17,06,4.30
2012,03,20,17,07,4.30
2012,03,20,17,08,4.30
2012,03,20,17,09,4.30
2012,03,20,17,10,4.30
2012,03,20,17,11,4.30
2012,03,20,17,12,4.40
2012,03,20,17,13,4.40
2012,03,20,17,14,4.40
2012,03,20,17,15,4.40
2012,03,20,17,16,4.40
2012,03,20,17,17,4.40
2012,03,20,17,18,4.50
2012,03,20,17,19,4.50
2012,03,20,17,20,4.50
2012,03,20,17,21,4.60
2012,03,20,17,22,4.60
2012,03,20,17,23,4.60
2012,03,20,17,24,4.60
2012,03,20,17,25,4.60
2012,03,20,17,26,4.70
2012,03,20,17,27,4.70
2012,03,20,17,28,4.70
2012,03,20,17,29,4.80
2012,03,20,17,30,4.80
2012,03,20,17,31,4.80
2012,03,20,17,32,4.90
2012,03,20,17,33,4.90
2012,03,20,17,34,4.90
2012,03,20,17,35,4.90
2012,03,20,17,36,4.90
2012,03,20,17,37,4.90
2012,03,20,17,38,4.90
2012,03,20,17,39,4.90
2012,03,20,17,40,5.00
2012,03,20,17,41,5.10
2012,03,20,17,42,5.10
2012,03,20,17,43,5.10
2012,03,20,17,44,5.10
2012,03,20,17,45,5.10
2012,03,20,17,46,5.10
2012,03,20,17,47,5.10
2012,03,20,17,48,5.20
2012,03,20,17,49,5.10
2012,03,20,17,50,5.10
2012,03,20,17,51,5.10
2012,03,20,17,52,5.10
2012,03,20,17,53,5.10
2012,03,20,17,54,5.10
2012,03,20,17,55,5.10
2012,03,20,17,56,5.10
2012,03,20,17,57,5.10
2012,03,20,17,58,5.10
2012,03,20,17,59,5.10
2012,03,20,18,00,5.10
2012,03,20,18,01,5.10
2012,03,20,18,02,5.10
2012,03,20,18,03,5.10
2012,03,20,18,04,5.10
2012,03,20,18,05,5.10
2012,03,20,18,06,5.10